Tracking 29088 objects as of 14-Jul-2024
HD Live streaming from Space Station
objects crossing your sky now

COSMOS 1275 DEB

Track COSMOS 1275 DEB now!
10-day predictions


NORAD ID: 20089
Int'l Code: 1981-053MQ
Perigee: 845.9 km
Apogee: 910.0 km
Inclination: 82.8 °
Period: 102.4 minutes
Semi major axis: 7248 km
RCS: 0.0116 m2 (small)
Launch date: June 4, 1981
Source: Commonwealth of Independent States (former USSR) (CIS)
Launch site: PLESETSK MISSILE AND SPACE COMPLEX (PKMTR)

Note: This is SATELLITE DEBRIS
Your satellite tracking list
Your tracking list is empty




NASA's NSSDC Master Catalog

Two Line Element Set (TLE):
1 20089U 81053MK  24195.49589556  .00002985  00000-0  17745-2 0  9998
2 20089  82.7513 224.5324 0044226  17.6312 342.6383 14.06664731635110
Source of the keplerian elements: AFSPC